Weather History for KOXC - May, 2014

Change the Weather History Date:

Thursday, May 1, 2014

  Actual Average Record
Temperature  
Mean Temperature 58 °F -  
Max Temperature 71 °F 62 °F 82 °F (2001)
Min Temperature 46 °F 41 °F 26 °F (2008)
Degree Days  
Heating Degree Days 6    
Growing Degree Days 8 (Base 50)    
Moisture  
Dew Point 51 °F    
Average Humidity 82    
Maximum Humidity 94    
Minimum Humidity 53    
Precipitation  
Precipitation 1.33 in - - ()
Sea Level Pressure  
Sea Level Pressure 29.84 in    
Wind  
Wind Speed 7 mph (SE)    
Max Wind Speed 15 mph    
Max Gust Speed 20 mph    
Visibility 6 miles    
Events Fog , Rain    
Averages and records for this station are not official NWS values.
T = Trace of Precipitation, MM = Missing Value Source: NWS Daily Summary

Daily Weather History Graph

Daily Weather History Graph

Search for Another Location

Airport or City:

Trip Planner

Search our weather history database for the weather conditions in past years. The results will help you decide how hot, cold, wet, or windy it might be!

Date:

Astronomy

May. 01, 2014 Rise Set
Actual Time 5:49 AM EDT 7:50 PM EDT
Civil Twilight 5:19 AM EDT 8:20 PM EDT
Nautical Twilight 4:42 AM EDT 8:57 PM EDT
Astronomical Twilight 4:02 AM EDT 9:37 PM EDT
Moon 7:34 AM EDT (5/1) 10:21 PM EDT (5/1)
Length of Visible Light 15h 00m
Length of Day
14h 00m
Waxing Crescent, 6% of the Moon is Illuminated
May 1
Waxing Crescent
May 6
First Quarter
May 14
Full
May 21
Last Quarter
May 28
New

Hourly Weather History & Observations

Time (EDT) Temp. Windchill Dew Point Humidity Pressure Visibility Wind Dir Wind Speed Gust Speed Precip Events Conditions
12:15 AM 51.8 °F - 46.4 °F 82% 30.07 in 4.0 mi East 8.1 mph - 0.19 in   Overcast
12:35 AM 50.0 °F - 46.4 °F 87% 30.05 in 5.0 mi ENE 6.9 mph - 0.42 in   Overcast
12:55 AM 48.2 °F - 44.6 °F 87% 30.03 in 10.0 mi ENE 6.9 mph - 0.54 in   Overcast
1:15 AM 48.2 °F - 44.6 °F 87% 30.02 in 5.0 mi ENE 6.9 mph - 0.12 in   Overcast
1:35 AM 48.2 °F - 44.6 °F 87% 30.02 in 8.0 mi North 8.1 mph - 0.26 in   Overcast
1:55 AM 48.2 °F - 42.8 °F 82% 30.01 in 10.0 mi NE 5.8 mph - 0.34 in   Overcast
2:15 AM 48.2 °F - 42.8 °F 82% 29.99 in 9.0 mi ENE 8.1 mph - 0.07 in   Overcast
2:35 AM 46.4 °F 41.9 °F 42.8 °F 87% 29.97 in 7.0 mi East 9.2 mph - 0.11 in   Overcast
2:55 AM 48.2 °F - 42.8 °F 82% 29.95 in 7.0 mi East 8.1 mph - 0.12 in   Overcast
3:15 AM 48.2 °F - 44.6 °F 87% 29.94 in 6.0 mi East 9.2 mph - 0.15 in   Overcast
3:35 AM 48.2 °F - 44.6 °F 87% 29.92 in 7.0 mi ENE 6.9 mph - 0.21 in   Overcast
3:55 AM 48.2 °F - 44.6 °F 87% 29.91 in 4.0 mi East 8.1 mph - 0.27 in   Overcast
4:15 AM 48.2 °F - 44.6 °F 87% 29.90 in 3.0 mi East 6.9 mph - 0.02 in   Overcast
4:35 AM 48.2 °F - 46.4 °F 93% 29.89 in 4.0 mi ESE 3.5 mph - 0.03 in   Overcast
4:55 AM 50.0 °F - 46.4 °F 87% 29.89 in 4.0 mi ESE 5.8 mph - 0.05 in   Overcast
5:15 AM 50.0 °F - 46.4 °F 87% 29.88 in 2.0 mi ESE 6.9 mph - N/A   Overcast
5:35 AM 51.8 °F - 48.2 °F 88% 29.87 in 1.5 mi SE 6.9 mph - 0.01 in   Overcast
5:45 AM 53.6 °F - 48.2 °F 82% 29.88 in 0.2 mi SSE 6.9 mph - N/A Fog , Rain Light Rain
6:45 AM 55.4 °F - 51.8 °F 88% 29.87 in 0.1 mi South 6.9 mph - N/A Fog Light Drizzle
7:50 AM 55.4 °F - 51.8 °F 88% 29.84 in 0.0 mi SSW 6.9 mph - N/A Fog Light Drizzle
8:55 AM 55.4 °F - 51.8 °F 88% 29.83 in 0.0 mi SSW 6.9 mph - N/A Fog Fog
9:45 AM 57.2 °F - 53.6 °F 88% 29.82 in 0.0 mi SSW 6.9 mph - N/A Fog Light Drizzle
10:45 AM 57.2 °F - 55.4 °F 94% 29.83 in 0.0 mi SW 4.6 mph - N/A Fog Light Drizzle
11:45 AM 59.0 °F - 55.4 °F 88% 29.80 in 0.2 mi Calm Calm - N/A Fog Light Drizzle
12:25 PM 60.8 °F - 57.2 °F 88% 29.79 in 3.0 mi West 5.8 mph - N/A   Overcast
12:52 PM 60.8 °F - 57.2 °F 88% 29.80 in 7.0 mi West 6.9 mph - N/A   Overcast
1:52 PM 62.6 °F - 60.8 °F 94% 29.77 in 10.0 mi West 5.8 mph - N/A   Mostly Cloudy
2:52 PM 68.0 °F - 60.8 °F 78% 29.75 in 10.0 mi WNW 3.5 mph - N/A   Mostly Cloudy
3:52 PM 71.6 °F - 57.2 °F 60% 29.74 in 10.0 mi WSW 11.5 mph 16.1 mph N/A   Scattered Clouds
4:48 PM 71.6 °F - 53.6 °F 53% 29.72 in 10.0 mi WSW 6.9 mph 17.3 mph N/A   Scattered Clouds
5:55 PM 69.8 °F - 57.2 °F 64% 29.70 in 10.0 mi South 9.2 mph - N/A   Partly Cloudy
6:52 PM 66.2 °F - 57.2 °F 73% 29.70 in 10.0 mi SSW 11.5 mph 19.6 mph N/A   Clear
7:55 PM 62.6 °F - 55.4 °F 77% 29.71 in 10.0 mi SSW 11.5 mph - N/A   Clear
9:15 PM 62.6 °F - 55.4 °F 77% 29.72 in 10.0 mi SSW 3.5 mph - N/A   Clear
9:35 PM 60.8 °F - 55.4 °F 82% 29.72 in 10.0 mi SW 3.5 mph - N/A   Clear
9:55 PM 60.8 °F - 55.4 °F 82% 29.72 in 10.0 mi SW 3.5 mph - N/A   Scattered Clouds
10:15 PM 62.6 °F - 55.4 °F 77% 29.72 in 10.0 mi Calm Calm - N/A   Overcast
10:35 PM 62.6 °F - 55.4 °F 77% 29.72 in 10.0 mi NNW 4.6 mph - N/A   Mostly Cloudy
10:55 PM 60.8 °F - 53.6 °F 77% 29.72 in 10.0 mi NNW 3.5 mph - N/A   Mostly Cloudy
11:15 PM 60.8 °F - 53.6 °F 77% 29.73 in 10.0 mi North 11.5 mph - N/A   Overcast
11:35 PM 59.0 °F - 51.8 °F 77% 29.74 in 10.0 mi North 15.0 mph - N/A   Mostly Cloudy
11:55 PM 57.2 °F - 50.0 °F 77% 29.75 in 10.0 mi North 11.5 mph - N/A   Overcast